RH
24 44 50 33 26 58 81 94 98 92 96 98 96 95 93 90 87 82 80 84 92 80 75 77 80 84 83 77 81 78 87 64 46 31 24 20 19 19 16 14 13 12 11
29 22 22 25 18 57 100 99 97 96 97 97 97 96 93 96 92 95 94 94 89 94 88 88 92 90 86 88 84 88 88 60 42 28 22 20 21 19 16 14 13 12 12
27 28 21 17 13 22 76 99 100 97 97 97 94 95 97 99 96 96 96 96 98 96 93 96 91 90 86 90 90 90 84 57 36 26 21 22 21 18 15 14 14 14 14
22 24 25 24 14 15 28 96 99 98 97 97 96 97 97 93 94 95 99 98 95 97 92 95 93 88 87 95 92 96 76 43 30 23 22 23 19 16 15 15 15 15 17
23 25 27 24 24 23 26 33 96 98 96 97 97 97 94 97 97 97 96 95 94 96 90 92 89 90 93 96 99 89 61 33 25 23 24 21 17 16 16 16 16 19 34
30 31 28 28 33 30 27 33 51 95 96 96 97 97 97 96 97 91 90 91 92 94 89 86 88 92 98 97 91 59 37 28 24 25 22 18 18 18 18 18 25 43 54
25 23 23 26 32 42 30 41 48 46 97 76 87 97 96 95 85 83 79 90 94 85 94 96 96 97 90 76 55 40 31 26 25 22 18 19 21 21 22 31 42 42 50
30 27 21 22 31 64 52 60 52 37 42 97 98 97 97 96 93 88 90 87 83 95 95 98 95 93 81 57 42 32 27 25 23 20 21 24 24 32 44 47 46 47 48
40 36 26 31 42 71 67 73 75 34 34 53 78 92 75 84 85 97 96 96 97 96 100 89 88 83 64 43 33 27 25 24 22 24 27 32 40 51 53 53 53 48 39
38 39 45 54 49 43 91 100 98 30 34 49 67 86 95 98 89 90 90 95 90 95 95 93 81 63 45 34 28 26 25 25 28 32 39 51 58 62 61 56 50 40 32
57 80 93 90 71 58 90 94 67 21 37 41 63 67 86 93 98 98 97 96 94 93 92 94 74 48 36 30 26 26 28 33 38 47 61 66 67 66 57 48 40 33 25
84 86 83 100 99 87 64 64 35 30 38 63 71 71 73 77 77 78 97 91 93 94 97 84 48 36 31 27 27 28 37 48 58 68 72 71 66 58 47 39 31 26 28
77 70 74 94 100 99 85 70 43 51 54 62 88 92 84 81 96 92 96 95 98 92 79 50 37 32 28 28 32 45 53 66 76 77 73 68 57 45 38 30 29 31 26
37 62 58 45 84 97 95 62 58 54 69 92 96 99 93 96 100 95 100 95 80 72 44 35 33 28 29 41 50 59 72 82 78 73 67 53 42 36 31 32 30 25 20
31 23 21 27 97 97 98 84 78 74 93 92 98 98 97 96 92 100 92 72 61 38 36 32 30 32 45 53 64 78 84 78 76 64 50 42 36 34 34 27 25 17 8
28 22 33 88 99 100 84 95 91 98 98 99 98 97 96 97 98 84 72 46 37 37 31 32 37 45 57 70 88 86 79 75 60 49 42 38 37 32 27 21 11 7 5
36 58 79 99 99 97 100 98 98 96 97 98 99 93 77 85 74 52 36 41 38 33 37 44 50 63 83 91 86 80 70 56 48 42 39 36 31 25 16 9 6 4 4
70 83 75 100 98 99 99 97 100 99 97 98 85 69 57 41 34 38 42 35 37 44 49 58 71 92 91 82 78 65 56 47 41 39 34 29 22 12 8 6 4 4 5
84 85 80 87 99 81 100 82 93 88 80 58 44 41 39 40 42 36 38 45 51 57 65 88 97 89 82 76 60 56 46 42 40 36 30 18 11 8 5 4 4 5 9
66 52 59 60 62 49 50 62 59 57 48 48 48 50 41 35 37 44 52 57 67 90 98 94 84 86 72 60 55 44 43 40 36 25 14 10 7 5 4 4 5 9 10
28 31 32 35 48 47 53 60 54 53 50 43 42 40 41 50 55 59 73 94 100 96 84 80 78 65 59 54 48 44 38 30 20 13 10 6 5 4 4 6 10 11 20
60 59 59 58 55 51 48 44 44 46 48 47 52 59 60 70 88 98 100 93 84 78 75 68 63 61 55 50 45 37 28 18 13 9 7 5 4 4 6 11 12 24 27
48 47 45 45 46 48 50 52 56 60 64 71 85 95 98 98 93 87 78 72 70 72 67 64 63 58 53 44 36 27 17 13 9 7 5 4 4 7 12 12 25 30 23
59 60 61 62 65 69 74 85 96 99 99 98 93 84 75 69 66 66 67 68 66 64 64 64 61 54 44 35 26 16 14 9 7 5 4 5 7 12 12 23 34 26 40
98 99 99 99 99 99 98 93 85 78 72 68 67 66 66 67 67 65 65 65 67 70 68 63 54 45 37 24 16 14 9 7 5 4 5 7 14 13 23 39 29 42 50
99 98 96 89 83 81 78 76 74 72 70 70 71 73 73 73 73 72 73 77 77 71 65 56 46 38 22 16 14 9 7 6 4 5 7 14 14 19 42 36 34 60 63
Wind_Speed
73 74 71 67 66 60 62 68 63 59 56 53 50 46 44 42 41 36 36 36 37 33 34 34 33 34 37 36 38 41 40 37 37 36 35 35 36 36 38 40 40 40 41
65 71 72 70 70 64 59 63 65 63 57 54 53 52 50 47 44 40 39 37 39 37 36 37 36 39 41 38 42 44 42 36 37 36 36 36 37 39 40 41 42 44 47
50 58 65 70 68 70 62 61 65 60 59 54 57 54 48 44 48 45 39 38 37 40 40 41 44 46 45 43 44 48 37 37 37 38 37 38 39 40 41 43 45 48 52
40 46 54 67 68 65 67 63 63 66 60 56 54 54 53 51 47 44 41 42 41 43 44 44 47 49 49 46 48 44 35 37 38 39 39 41 41 43 44 47 50 53 57
34 39 45 56 66 65 65 64 64 65 63 62 54 52 53 44 43 43 41 43 43 47 47 48 51 52 50 48 48 34 37 39 38 40 42 43 44 46 48 52 55 59 63
28 36 40 48 61 64 64 65 64 61 62 55 59 55 48 46 45 50 51 50 49 50 52 54 54 53 52 43 33 34 39 40 40 42 44 45 47 50 53 56 59 61 63
26 30 34 39 51 59 61 64 64 64 52 61 60 54 50 53 55 56 59 60 56 59 59 55 54 43 34 34 33 37 39 41 43 45 46 49 52 55 58 62 64 67 67
22 24 27 30 40 49 58 61 62 64 68 49 44 51 51 51 55 53 59 54 60 63 67 38 27 26 29 34 37 38 40 42 45 46 49 53 56 60 63 66 70 70 68
20 21 21 26 35 43 52 55 61 61 62 65 62 54 50 59 57 41 49 46 40 22 19 26 27 30 32 37 39 39 42 44 48 51 53 57 61 64 67 70 70 71 71
18 17 19 23 31 40 45 50 54 58 58 58 57 56 63 44 48 54 59 41 21 21 23 26 27 33 36 38 40 42 44 46 51 54 58 61 64 66 67 69 71 74 76
17 18 19 19 26 33 39 44 48 53 54 55 53 53 51 50 41 51 45 41 21 22 26 32 34 35 38 41 42 44 47 50 55 58 61 64 65 66 68 71 74 77 79
21 19 19 24 23 32 37 39 44 48 49 49 50 50 47 48 48 47 36 33 25 25 31 36 35 36 40 43 44 47 51 55 58 61 63 64 65 68 72 74 77 80 86
19 20 17 13 12 32 36 37 41 41 42 43 42 41 41 47 52 40 25 22 23 29 35 35 37 39 42 45 47 50 55 58 60 62 64 65 68 71 75 77 81 86 90
13 16 15 16 16 26 29 31 35 38 41 45 43 40 40 50 40 24 21 25 30 32 33 36 39 42 44 46 50 54 58 59 61 63 65 69 72 75 77 82 86 90 91
14 15 16 13 9 25 25 26 30 35 37 49 28 31 26 25 18 20 25 29 30 31 36 38 41 43 45 50 55 57 59 60 62 65 69 72 74 78 83 87 90 92 91
14 12 11 9 13 22 24 31 31 31 34 35 36 32 17 13 17 23 28 28 30 34 37 39 42 46 50 54 56 58 59 61 64 68 71 74 78 82 86 90 91 90 89
9 6 9 9 14 14 21 26 25 20 15 19 19 17 19 19 21 26 28 31 34 36 37 41 46 50 53 55 56 57 60 63 68 70 73 77 81 86 88 90 88 84 78
12 9 10 9 8 12 21 25 17 16 12 14 13 13 15 21 24 29 30 32 33 37 41 45 50 52 54 55 56 60 63 67 69 73 77 81 85 88 90 88 81 74 71
11 11 11 14 8 6 19 18 15 14 13 15 18 18 21 25 27 28 30 33 37 41 46 49 51 52 53 55 58 63 66 68 72 76 81 84 88 88 85 79 73 69 67
9 9 12 9 7 7 10 13 14 14 19 19 19 20 23 24 26 29 33 37 42 45 47 49 50 51 54 57 63 64 67 70 74 79 82 86 85 82 78 73 67 64 62
9 11 14 15 13 10 10 9 12 16 18 18 20 23 24 26 30 34 39 42 44 45 46 48 50 52 56 60 62 66 70 74 77 80 84 84 81 77 72 66 62 59 54
5 5 6 6 6 8 11 14 17 19 20 21 23 25 28 32 35 38 40 41 42 44 47 49 51 55 59 61 65 69 73 76 79 83 85 83 78 70 63 60 57 51 51
6 7 8 10 12 14 16 18 20 21 23 25 28 30 32 34 35 36 38 41 43 46 48 51 55 58 61 64 67 71 74 78 81 83 82 76 69 61 58 54 47 47 37
13 14 15 17 18 19 21 22 24 25 25 27 28 28 30 32 35 38 40 43 45 47 50 54 56 59 63 66 70 73 76 79 81 79 73 66 58 55 52 44 43 35 23
16 17 19 19 18 19 19 21 23 24 24 25 27 30 33 35 38 40 43 45 47 50 53 55 58 61 65 68 70 74 77 79 78 72 64 57 53 51 43 41 34 22 15
16 16 16 17 18 19 20 21 22 25 27 29 32 34 37 39 41 43 45 47 49 52 55 58 60 63 65 69 73 76 78 78 72 63 55 51 50 42 38 34 23 15 14
Wind_Direction
225 224 228 226 220 221 222 223 222 220 223 224 226 227 229 232 236 240 245 251 256 267 272 276 279 283 288 294 299 300 299 301 303 302 301 299 297 294 294 295 294 293 294
229 225 222 226 220 217 219 220 222 219 220 225 226 225 227 230 235 241 245 252 266 259 268 273 276 280 284 288 295 296 294 299 302 300 299 295 294 293 294 295 294 295 298
226 227 222 222 223 218 218 218 222 223 216 222 227 231 230 236 241 237 246 251 256 263 267 269 275 278 282 284 290 294 291 298 300 299 295 294 293 293 294 294 295 298 300
224 226 221 218 220 219 219 216 221 223 221 220 226 225 226 229 235 242 244 251 257 263 270 271 274 279 283 284 289 287 298 299 298 295 293 293 293 294 294 296 298 301 302
226 223 225 218 217 216 216 218 219 222 222 223 226 233 240 240 237 236 243 250 253 260 266 269 272 276 280 283 283 294 300 297 296 294 294 294 294 295 297 299 302 304 305
219 219 224 222 219 215 213 215 218 218 226 227 228 229 233 240 244 250 253 255 258 261 267 269 273 275 277 277 292 299 296 296 294 293 293 294 295 297 300 302 303 305 305
222 220 225 225 222 217 211 212 215 216 216 231 232 230 234 237 246 250 256 257 256 261 263 267 265 277 291 299 299 296 295 294 293 293 294 295 298 301 303 304 306 306 305
222 229 228 225 222 220 215 209 211 216 215 232 222 231 238 246 246 256 261 264 262 261 263 266 289 295 297 299 297 294 293 294 294 294 296 299 302 304 305 306 306 305 304
214 216 219 211 207 216 217 210 209 213 217 224 229 233 239 237 241 262 244 246 244 253 271 289 299 302 302 293 291 293 294 295 295 297 300 303 304 306 306 306 306 304 305
208 208 215 216 205 212 216 214 208 209 215 222 227 231 235 255 256 257 265 264 283 291 299 299 299 297 294 293 293 295 294 296 297 301 303 304 306 306 306 306 306 306 307
201 209 209 212 204 206 215 211 209 208 214 218 225 231 235 240 259 256 271 274 280 284 294 295 295 295 294 292 293 295 296 299 300 303 304 305 306 306 306 307 308 309 308
212 216 219 209 203 205 202 208 210 210 214 218 225 231 238 242 251 260 259 262 271 285 289 291 293 292 290 292 293 297 299 300 302 304 304 306 307 307 308 309 309 308 309
215 223 233 254 242 195 198 204 210 211 212 221 227 231 237 249 242 254 264 268 280 284 287 293 289 289 290 292 296 298 299 301 304 304 306 307 308 308 309 309 309 310 310
211 211 227 246 279 198 197 200 208 211 211 210 223 209 226 249 254 249 267 278 281 286 289 285 287 287 290 295 297 298 300 303 304 306 307 308 309 310 310 310 311 311 311
186 192 209 223 221 188 187 196 205 214 217 220 235 217 229 226 233 255 268 275 282 283 280 285 286 290 294 295 297 299 303 305 307 307 309 309 310 310 311 311 312 312 311
170 188 197 199 184 176 181 203 210 217 194 204 226 241 222 241 260 268 272 274 276 280 283 283 289 292 294 296 299 302 305 306 307 309 309 310 311 312 313 313 314 312 309
154 169 187 182 195 215 205 204 191 177 199 200 198 213 238 252 261 268 269 272 276 279 285 288 291 293 295 298 301 305 306 308 309 309 310 312 313 314 313 314 313 311 310
153 133 174 191 147 183 190 187 177 177 218 211 229 240 249 256 259 262 270 275 279 283 287 290 292 294 297 301 305 306 308 308 310 311 313 314 314 315 316 315 314 313 312
145 164 160 191 212 111 166 191 191 195 206 223 231 236 244 252 259 270 274 277 283 287 289 289 293 297 301 304 306 307 309 311 312 314 314 315 315 316 316 317 317 316 314
176 153 168 180 180 192 188 189 206 222 230 235 244 253 257 263 268 273 279 283 284 285 288 292 297 301 304 306 306 308 310 312 313 313 314 315 318 318 319 319 318 316 316
182 172 179 190 201 203 220 230 231 240 245 249 252 254 260 268 275 278 279 280 284 289 293 299 302 304 304 304 307 310 312 312 313 314 316 319 320 321 320 319 318 318 319
179 189 202 212 218 224 233 237 240 245 249 253 259 267 271 272 274 277 281 286 291 296 299 300 302 303 305 308 310 311 311 313 315 318 320 322 321 319 319 320 320 321 322
225 233 237 237 237 239 241 243 248 253 259 264 266 268 272 276 280 285 290 294 296 298 299 301 303 305 307 308 309 311 313 316 319 320 321 320 319 320 321 320 321 322 325
237 243 245 246 249 251 254 257 261 264 266 268 271 277 283 287 291 293 295 296 296 298 300 302 304 305 307 309 311 313 316 319 321 320 319 318 318 320 320 320 322 324 334
257 260 259 258 257 259 262 264 265 267 272 278 284 288 291 292 294 295 295 296 297 298 300 303 305 307 309 310 313 316 318 320 319 318 318 319 321 321 321 322 323 324 334
259 260 262 262 263 266 271 276 280 283 285 287 290 292 292 294 294 294 295 296 298 300 302 305 306 307 309 313 317 318 319 319 318 318 319 320 321 320 320 321 316 316 325